TimeEDT,TemperatureF,Dew PointF,Humidity,Sea Level PressureIn,VisibilityMPH,Wind Direction,Wind SpeedMPH,Gust SpeedMPH,PrecipitationIn,Events,Conditions,WindDirDegrees,DateUTC
12:56 AM,57.9,48.9,72,30.09,10.0,NNW,5.8,-,N/A,,Clear,340,2013-06-05 04:56:00
1:56 AM,57.9,48.0,70,30.09,10.0,North,9.2,-,N/A,,Clear,350,2013-06-05 05:56:00
2:56 AM,57.0,45.0,64,30.10,10.0,North,5.8,-,N/A,,Clear,360,2013-06-05 06:56:00
3:56 AM,55.9,44.1,64,30.11,10.0,North,5.8,-,N/A,,Clear,360,2013-06-05 07:56:00
4:56 AM,55.0,45.0,69,30.11,10.0,North,3.5,-,N/A,,Clear,360,2013-06-05 08:56:00
5:56 AM,54.0,46.0,75,30.14,10.0,North,4.6,-,N/A,,Mostly Cloudy,10,2013-06-05 09:56:00
6:56 AM,59.0,48.9,69,30.16,10.0,NE,4.6,-,N/A,,Scattered Clouds,50,2013-06-05 10:56:00
7:56 AM,63.0,48.0,58,30.18,10.0,East,5.8,-,N/A,,Scattered Clouds,80,2013-06-05 11:56:00
8:56 AM,66.0,46.0,48,30.19,10.0,East,5.8,-,N/A,,Mostly Cloudy,80,2013-06-05 12:56:00
9:56 AM,68.0,46.0,45,30.19,10.0,Variable,3.5,-,N/A,,Mostly Cloudy,0,2013-06-05 13:56:00
10:56 AM,69.1,46.9,45,30.19,10.0,South,4.6,-,N/A,,Mostly Cloudy,190,2013-06-05 14:56:00
11:56 AM,70.0,45.0,41,30.18,10.0,SE,9.2,-,N/A,,Mostly Cloudy,130,2013-06-05 15:56:00
12:56 PM,70.0,43.0,38,30.17,10.0,SE,11.5,-,N/A,,Mostly Cloudy,140,2013-06-05 16:56:00
1:56 PM,70.0,43.0,38,30.15,10.0,SE,12.7,-,N/A,,Mostly Cloudy,130,2013-06-05 17:56:00
2:56 PM,70.0,42.1,36,30.15,10.0,ESE,13.8,-,N/A,,Mostly Cloudy,120,2013-06-05 18:56:00
3:56 PM,69.1,39.9,35,30.13,10.0,SE,12.7,19.6,N/A,,Mostly Cloudy,130,2013-06-05 19:56:00
4:56 PM,68.0,41.0,37,30.14,10.0,SSE,12.7,-,N/A,,Mostly Cloudy,150,2013-06-05 20:56:00
5:56 PM,68.0,44.1,42,30.14,10.0,SE,9.2,-,N/A,,Mostly Cloudy,140,2013-06-05 21:56:00
6:56 PM,66.0,43.0,43,30.14,10.0,South,5.8,-,N/A,,Mostly Cloudy,170,2013-06-05 22:56:00
7:56 PM,64.0,45.0,50,30.13,10.0,South,8.1,-,N/A,,Mostly Cloudy,170,2013-06-05 23:56:00
8:56 PM,61.0,48.9,64,30.14,10.0,SE,6.9,-,N/A,,Scattered Clouds,130,2013-06-06 00:56:00
9:56 PM,60.1,52.0,75,30.15,10.0,SE,5.8,-,N/A,,Partly Cloudy,140,2013-06-06 01:56:00
10:56 PM,59.0,54.0,83,30.14,10.0,SSE,6.9,-,N/A,,Scattered Clouds,150,2013-06-06 02:56:00
11:56 PM,59.0,55.0,87,30.14,10.0,ESE,5.8,-,N/A,,Partly Cloudy,120,2013-06-06 03:56:00